Torna al catalogo

FENGYUN 1C DEB

LostSSO
NORAD 40684·DEBRIS·🇨🇳 China

Lanciato May 10, 1999 da Taiyuan Satellite Launch Center

Loading…

Prossimi Passaggi (prossime 24 ore)

TLE

ObsoletoSource: Space-Track

Epoca: Sep 21, 2022, 21:59 UTC

1 40684U 99025EWQ 22264.91657344  .00000934  00000-0  53761-3 0  9993
2 40684  98.7595 320.5505 0033893 350.2096   9.8412 14.11347713448673

Traccia FENGYUN 1C DEB in tempo reale con AllMySat

Download on the App Store